Content
SEND FEEDBACK

Daily
Averages
Monthly
Summary
United States of America

WHITERIVER, ARIZONA


Home > North America > United States > Arizona
Elevation: 5210 feet     Latitude: 33 50N     Longitude: 109 58W

WEATHER
 
SELECT A DAY
Number of Records: 266,962;   Date Range: 1/1/95 - 11/21/14
 
SHARE

PRINT THIS DATA

[ ← Previous Day ]
WEATHER ALMANAC - FEBRUARY 13, 2013
[ Next Day → ]
[ °C ]   °F
Weather ElementAverageHighLow
Temperature20.3 °F33.8 °F (3:35 pm)5 °F (6:35 am)
Dewpoint11.3 °F17.6 °F (1:35 pm)1.4 °F (5:15 am)
Humidity69.5 %92 % (4:35 am)48 % (2:15 pm)
Barometer30.18 in30.22 in (9:15 am)30.16 in (3:35 am)
Wind Speed4.1 mph9.2 mph (1:15 pm)
Weather ElementAverage
Visibility10 mi
Wind DirectionESE (100.1 °)

Weather ElementTotal
Precipitation---
Heating Degree Days45.6 (Base 65)
Averaged from 71 records on February 13, 2013
WEATHER CONDITIONS BREAKOUT
WIND DIRECTION BREAKOUT
WEATHER BY HOUR - FEBRUARY 13, 2013
[ °C ]   °F
Local TimeTemperatureDewpointHumidityBarometerVisibilityWind DirectionWind SpeedGust SpeedPrecipitationEventsConditions
12:35 AM12.2 °F6.8 °F79 %30.18 in10.0 miCalmClear
12:55 AM12.2 °F6.8 °F79 %30.19 in10.0 miCalmClear
1:15 AM10.4 °F6.8 °F85 %30.18 in10.0 miCalmClear
1:35 AM10.4 °F6.8 °F85 %30.18 in10.0 miCalmClear
1:55 AM10.4 °F6.8 °F85 %30.18 in10.0 miCalmClear
2:15 AM10.4 °F6.8 °F85 %30.18 in10.0 miEast (80°)5.8 mphClear
2:35 AM8.6 °F5.0 °F85 %30.17 in10.0 miEast (80°)5.8 mphClear
2:55 AM8.6 °F5.0 °F85 %30.17 in10.0 miEast (80°)5.8 mphClear
3:15 AM8.6 °F5.0 °F85 %30.17 in10.0 miEast (80°)5.8 mphClear
3:35 AM8.6 °F5.0 °F85 %30.16 in10.0 miEast (80°)6.9 mphClear
3:55 AM8.6 °F3.2 °F79 %30.16 in10.0 miENE (70°)5.8 mphClear
4:15 AM8.6 °F5.0 °F85 %30.16 in10.0 miENE (70°)3.5 mphClear
4:35 AM6.8 °F5.0 °F92 %30.16 in10.0 miCalmClear
4:55 AM8.6 °F3.2 °F79 %30.16 in10.0 miCalmClear
5:15 AM6.8 °F1.4 °F79 %30.17 in10.0 miCalmClear
5:35 AM6.8 °F1.4 °F79 %30.17 in10.0 miCalmClear
5:55 AM6.8 °F1.4 °F79 %30.18 in10.0 miCalmClear
6:15 AM6.8 °F3.2 °F85 %30.18 in10.0 miCalmClear
6:35 AM5.0 °F1.4 °F85 %30.18 in10.0 miCalmClear
6:55 AM6.8 °F1.4 °F79 %30.19 in10.0 miCalmClear
7:15 AM8.6 °F5.0 °F85 %30.19 in10.0 miCalmClear
7:35 AM6.8 °F1.4 °F79 %30.20 in10.0 miCalmClear
7:55 AM8.6 °F1.4 °F73 %30.21 in10.0 miCalmClear
8:15 AM10.4 °F5.0 °F79 %30.21 in10.0 miCalmClear
8:35 AM15.8 °F8.6 °F73 %30.21 in10.0 miCalmClear
8:55 AM17.6 °F10.4 °F73 %30.21 in10.0 miCalmClear
9:15 AM21.2 °F14.0 °F74 %30.22 in10.0 miCalmClear
9:35 AM21.2 °F14.0 °F74 %30.22 in10.0 miCalmClear
9:55 AM23.0 °F14.0 °F68 %30.22 in10.0 miCalmClear
10:15 AM24.8 °F15.8 °F69 %30.22 in10.0 miCalmClear
10:35 AM26.6 °F15.8 °F64 %30.22 in10.0 miNNE (20°)4.6 mphClear
10:55 AM26.6 °F15.8 °F64 %30.22 in10.0 miCalmClear
11:15 AM28.4 °F15.8 °F59 %30.22 in10.0 miNorth (10°)6.9 mphClear
11:35 AM28.4 °F14.0 °F55 %30.21 in10.0 miNorth (360°)8.1 mphClear
11:55 AM28.4 °F14.0 °F55 %30.21 in10.0 miNorth (350°)8.1 mphClear
12:15 PM28.4 °F14.0 °F55 %30.21 in10.0 miNorth (360°)6.9 mphClear
12:35 PM30.2 °F14.0 °F51 %30.20 in10.0 miNorth (360°)6.9 mphClear
12:55 PM30.2 °F15.8 °F55 %30.19 in10.0 miNorth (350°)6.9 mphClear
1:15 PM30.2 °F15.8 °F55 %30.19 in10.0 miNorth (360°)9.2 mphClear
1:35 PM32.0 °F17.6 °F55 %30.18 in10.0 miNorth (10°)9.2 mphClear
1:55 PM32.0 °F15.8 °F51 %30.17 in10.0 miNorth (350°)8.1 mphClear
2:15 PM32.0 °F14.0 °F48 %30.17 in10.0 miNorth (360°)8.1 mphClear
2:35 PM32.0 °F17.6 °F55 %30.17 in10.0 miNorth (360°)9.2 mphClear
2:55 PM32.0 °F15.8 °F51 %30.17 in10.0 miNNE (20°)5.8 mphClear
3:15 PM32.0 °F15.8 °F51 %30.17 in10.0 miNorth (350°)8.1 mphClear
3:35 PM33.8 °F15.8 °F48 %30.17 in10.0 miNorth (350°)9.2 mphClear
3:55 PM33.8 °F15.8 °F48 %30.17 in10.0 miNorth (10°)5.8 mphClear
4:15 PM33.8 °F17.6 °F52 %30.17 in10.0 miNorth (10°)6.9 mphClear
4:35 PM33.8 °F17.6 °F52 %30.17 in10.0 miNorth (360°)8.1 mphClear
4:55 PM33.8 °F15.8 °F48 %30.16 in10.0 miNorth (360°)6.9 mphClear
5:15 PM32.0 °F15.8 °F51 %30.16 in10.0 miNorth (10°)6.9 mphClear
5:35 PM32.0 °F15.8 °F51 %30.16 in10.0 miNorth (10°)6.9 mphClear
5:55 PM30.2 °F15.8 °F55 %30.16 in10.0 miNorth (360°)5.8 mphClear
6:15 PM28.4 °F15.8 °F59 %30.17 in10.0 miNorth (360°)5.8 mphClear
6:35 PM26.6 °F15.8 °F64 %30.17 in10.0 miNorth (10°)4.6 mphClear
6:55 PM24.8 °F15.8 °F69 %30.17 in10.0 miNNE (30°)3.5 mphClear
7:15 PM24.8 °F15.8 °F69 %30.18 in10.0 miCalmClear
7:35 PM24.8 °F15.8 °F69 %30.18 in10.0 miENE (60°)3.5 mphClear
7:55 PM24.8 °F15.8 °F69 %30.18 in10.0 miENE (60°)3.5 mphClear
8:15 PM23.0 °F15.8 °F74 %30.18 in10.0 miEast (80°)6.9 mphClear
8:35 PM23.0 °F15.8 °F74 %30.18 in10.0 miEast (80°)5.8 mphClear
8:55 PM23.0 °F15.8 °F74 %30.18 in10.0 miEast (80°)5.8 mphClear
9:15 PM23.0 °F14.0 °F68 %30.19 in10.0 miEast (90°)5.8 mphClear
9:35 PM23.0 °F14.0 °F68 %30.19 in10.0 miENE (70°)3.5 mphClear
9:55 PM21.2 °F14.0 °F74 %30.19 in10.0 miEast (90°)3.5 mphClear
10:15 PM19.4 °F14.0 °F80 %30.19 in10.0 miEast (90°)3.5 mphClear
10:35 PM19.4 °F14.0 °F80 %30.19 in10.0 miEast (80°)5.8 mphClear
10:55 PM19.4 °F14.0 °F80 %30.19 in10.0 miEast (80°)5.8 mphClear
11:15 PM17.6 °F12.2 °F79 %30.19 in10.0 miENE (70°)6.9 mphClear
11:35 PM15.8 °F10.4 °F79 %30.18 in10.0 miENE (60°)5.8 mphClear
11:55 PM19.4 °F12.2 °F74 %30.18 in10.0 miEast (90°)6.9 mphClear
Hourly data recorded from KSOW, located miles away from Whiteriver, Arizona







STORIES FROM OUR PARTNERS